KUIPER-00029

导读 | 豆包AI

KUIPER-00029是美国亚马逊“柯伊伯计划”卫星互联网星座中的一颗量产卫星,于2025年4月28日发射升空。该计划计划在近地轨道部署3236颗卫星,为全球提供高速低延迟互联网接入,尤其服务网络覆盖薄弱地区,并深度整合亚马逊AWS云服务,拓展边缘计算等场景,与SpaceX星链形成市场竞争。

Basic Information
目录编号:
63742
目录名称:
KUIPER-00029
国际标识:
2025-088U
轨道中心:
EARTH
卫星名称:
KUIPER-00029
卫星全名:
KUIPER-00029
卫星状态:
在轨 (已飞行320 天)
发射日期:
2025-04-28 UTC
国别 :
美国 (US)
星等 :
--
Orbit Information
数据来源 国际轨道数据
星历时间: 2026-03-14T06:00:02+0800
8小时前
查看轨道信息
半长轴: 7007.58km
偏心率: 0.0000883
轨道倾角: 51.901°
近地点辐角 104.345°
升交点赤经 71.906°
平近点角 57.544°
近地点: 628.824km
远地点: 630.062km
周期: 97.300分钟
每日圈数: 14.799625
Detailed Information
使用方式:
暂无
2D Orbit Map
3D Orbit Map
Orbit Altitude Analysis Chart
Orbit Inclination Analysis Chart
Orbit Comprehensive Analysis Chart
View Comprehensive Chart